Time,TemperatureF,DewpointF,PressureIn,WindDirection,WindDirectionDegrees,WindSpeedMPH,WindSpeedGustMPH,Humidity,HourlyPrecipIn,Conditions,Clouds,dailyrainin,SoftwareType,DateUTC
2013-08-16 00:15:00,57.7,50.9,29.84,WNW,293,0.0,3.0,78,0.00,,,0.26,Wunderground v.1.12,2013-08-16 04:15:00,
2013-08-16 00:45:00,57.3,50.8,29.84,West,270,0.0,5.0,79,0.00,,,0.26,Wunderground v.1.12,2013-08-16 04:45:00,
2013-08-16 01:15:00,57.6,51.1,29.84,West,270,0.0,3.0,79,0.00,,,0.26,Wunderground v.1.12,2013-08-16 05:15:00,
2013-08-16 01:45:00,57.0,50.9,29.83,West,270,0.0,5.0,80,0.00,,,0.26,Wunderground v.1.12,2013-08-16 05:45:00,
2013-08-16 02:15:00,55.8,50.7,29.83,N/A,-737280,0.0,0.0,83,0.00,,,0.26,Wunderground v.1.12,2013-08-16 06:15:00,
2013-08-16 02:45:00,54.8,49.7,29.83,West,270,0.0,2.0,83,0.00,,,0.26,Wunderground v.1.12,2013-08-16 06:45:00,
2013-08-16 03:15:00,54.0,49.3,29.83,West,270,0.0,2.0,84,0.00,,,0.26,Wunderground v.1.12,2013-08-16 07:15:00,
2013-08-16 03:45:00,53.6,48.9,29.84,N/A,-737280,0.0,0.0,84,0.00,,,0.26,Wunderground v.1.12,2013-08-16 07:45:00,
2013-08-16 04:15:00,53.3,48.9,29.84,N/A,-737280,0.0,0.0,85,0.00,,,0.26,Wunderground v.1.12,2013-08-16 08:15:00,
2013-08-16 04:45:00,53.0,48.9,29.84,N/A,-737280,0.0,0.0,86,0.00,,,0.26,Wunderground v.1.12,2013-08-16 08:45:00,
2013-08-16 05:15:00,52.9,48.8,29.84,N/A,-737280,0.0,0.0,86,0.00,,,0.26,Wunderground v.1.12,2013-08-16 09:15:00,
2013-08-16 05:45:00,52.7,48.6,29.85,N/A,-737280,0.0,0.0,86,0.00,,,0.26,Wunderground v.1.12,2013-08-16 09:45:00,
2013-08-16 06:15:00,52.6,48.8,29.86,West,270,0.0,2.0,87,0.00,,,0.26,Wunderground v.1.12,2013-08-16 10:15:00,
2013-08-16 06:45:00,53.0,49.2,29.86,N/A,-737280,0.0,0.0,87,0.00,,,0.26,Wunderground v.1.12,2013-08-16 10:45:00,
2013-08-16 07:15:00,54.2,50.1,29.87,West,270,1.0,6.0,86,0.00,,,0.26,Wunderground v.1.12,2013-08-16 11:15:00,
2013-08-16 07:45:00,56.4,51.6,29.88,WSW,248,0.0,5.0,84,0.00,,,0.26,Wunderground v.1.12,2013-08-16 11:45:00,
2013-08-16 08:15:00,59.5,52.6,29.88,WSW,248,1.0,5.0,78,0.00,,,0.26,Wunderground v.1.12,2013-08-16 12:15:00,
2013-08-16 08:45:00,63.4,55.0,29.88,West,270,0.0,8.0,74,0.00,,,0.26,Wunderground v.1.12,2013-08-16 12:45:00,
2013-08-16 09:15:00,65.4,55.0,29.89,West,270,2.0,10.0,69,0.00,,,0.26,Wunderground v.1.12,2013-08-16 13:15:00,
2013-08-16 09:45:00,67.7,55.5,29.89,West,270,2.0,9.0,65,0.00,,,0.26,Wunderground v.1.12,2013-08-16 13:45:00,
2013-08-16 10:15:00,68.5,54.5,29.89,West,270,3.0,8.0,61,0.00,,,0.26,Wunderground v.1.12,2013-08-16 14:15:00,
2013-08-16 10:45:00,70.0,55.0,29.90,WNW,293,2.0,9.0,59,0.00,,,0.26,Wunderground v.1.12,2013-08-16 14:45:00,
2013-08-16 11:15:00,71.4,56.3,29.90,WNW,293,3.0,9.0,59,0.00,,,0.26,Wunderground v.1.12,2013-08-16 15:15:00,
2013-08-16 11:45:00,72.6,57.0,29.89,West,270,3.0,12.0,58,0.00,,,0.26,Wunderground v.1.12,2013-08-16 15:45:00,
2013-08-16 12:15:00,74.7,59.4,29.89,West,270,4.0,13.0,59,0.00,,,0.26,Wunderground v.1.12,2013-08-16 16:15:00,
2013-08-16 12:45:00,76.8,58.4,29.89,West,270,4.0,13.0,53,0.00,,,0.26,Wunderground v.1.12,2013-08-16 16:45:00,
2013-08-16 13:15:00,76.5,60.1,29.89,West,270,3.0,12.0,57,0.00,,,0.26,Wunderground v.1.12,2013-08-16 17:15:00,
2013-08-16 13:45:00,76.3,58.4,29.88,West,270,4.0,14.0,54,0.00,,,0.26,Wunderground v.1.12,2013-08-16 17:45:00,
2013-08-16 14:15:00,77.7,58.7,29.88,West,270,5.0,13.0,52,0.00,,,0.26,Wunderground v.1.12,2013-08-16 18:15:00,
2013-08-16 14:45:00,78.6,60.0,29.88,West,270,3.0,13.0,53,0.00,,,0.26,Wunderground v.1.12,2013-08-16 18:45:00,
2013-08-16 15:15:00,72.7,62.8,29.89,WNW,293,0.0,4.0,71,0.04,,,0.26,Wunderground v.1.12,2013-08-16 19:15:00,
2013-08-16 15:45:00,70.2,62.6,29.89,WNW,284,0.0,0.0,77,0.00,,,0.00,Wunderground v.1.12,2013-08-16 19:45:00,
2013-08-16 16:15:00,71.7,63.0,29.89,NNE,33,0.0,0.0,74,0.00,,,0.00,Wunderground v.1.12,2013-08-16 20:15:00,
2013-08-16 16:45:00,73.6,61.1,29.88,WSW,248,0.0,0.0,65,0.00,,,0.00,Wunderground v.1.12,2013-08-16 20:45:00,
2013-08-16 17:15:00,74.7,58.5,29.89,West,275,1.0,1.0,57,0.00,,,0.00,Wunderground v.1.12,2013-08-16 21:15:00,
2013-08-16 17:45:00,69.9,57.6,29.90,SW,219,0.0,0.0,65,0.00,,,0.00,Wunderground v.1.12,2013-08-16 21:45:00,
2013-08-16 18:15:00,68.0,59.8,29.91,SW,219,0.0,0.0,75,0.00,,,0.00,Wunderground v.1.12,2013-08-16 22:15:00,
2013-08-16 18:45:00,66.7,60.3,29.92,SW,220,0.0,0.0,80,0.00,,,0.00,Wunderground v.1.12,2013-08-16 22:45:00,
2013-08-16 19:15:00,63.9,59.3,29.93,SW,222,0.0,0.0,85,0.00,,,0.00,Wunderground v.1.12,2013-08-16 23:15:00,
2013-08-16 19:45:00,61.9,58.6,29.94,WNW,285,0.0,0.0,89,0.00,,,0.00,Wunderground v.1.12,2013-08-16 23:45:00,
2013-08-16 20:15:00,61.8,59.1,29.94,WNW,284,0.0,0.0,91,0.00,,,0.00,Wunderground v.1.12,2013-08-17 00:15:00,
2013-08-16 20:45:00,60.6,57.7,29.95,WNW,285,0.0,0.0,90,0.00,,,0.00,Wunderground v.1.12,2013-08-17 00:45:00,
2013-08-16 21:15:00,59.6,57.0,29.96,WNW,284,0.0,0.0,91,0.00,,,0.00,Wunderground v.1.12,2013-08-17 01:15:00,
2013-08-16 21:45:00,59.7,57.1,29.96,WNW,284,0.0,0.0,91,0.00,,,0.00,Wunderground v.1.12,2013-08-17 01:45:00,
2013-08-16 22:15:00,59.0,56.4,29.97,WNW,285,0.0,0.0,91,0.00,,,0.00,Wunderground v.1.12,2013-08-17 02:15:00,
2013-08-16 22:45:00,58.2,55.6,29.97,WNW,284,0.0,0.0,91,0.00,,,0.00,Wunderground v.1.12,2013-08-17 02:45:00,
2013-08-16 23:15:00,57.5,54.3,29.97,WNW,284,0.0,0.0,89,0.00,,,0.00,Wunderground v.1.12,2013-08-17 03:15:00,
2013-08-16 23:45:00,57.1,53.9,29.98,WNW,284,0.0,0.0,89,0.00,,,0.00,Wunderground v.1.12,2013-08-17 03:45:00,